Location: *
(48.7358°N, 0.3111°E)
Time: 02:41:54
(UTC+00:00)

ADEOS II - Pass Details

Date: 22 October 2019
Orbit: 800 x 800 km, 98.5° (Epoch: 20 November)

Event Time Altitude Azimuth Distance (km) Brightness Sun altitude
Rises 02:37:56 0° 15° (NNE) 3,323 5.8 -37.7°
Reaches altitude 10° 02:40:17 10° 17° (NNE) 2,388 5.0 -37.3°
Enters shadow 02:42:04 22° 19° (NNE) 1,698 4.1 -37.1°
